Location: Centerville
(32.8776°N, 96.6203°W)
Time: 00:25:22
(UTC+00:00)

BREEZE-M DEB (TANK) - Pass Details

Date: 17 June 2021
Orbit: 276 x 16779 km, 49.5° (Epoch: 26 July)

Event Time Altitude Azimuth Distance (km) Brightness Sun altitude
Rises 03:16:03 0° 297° (WNW) 1,985 6.6 -17.6°
Reaches altitude 10° 03:17:28 10° 285° (WNW) 1,325 5.2 -17.8°
Maximum altitude 03:19:47 34° 215° (SW) 877 3.2 -18.1°
Enters shadow 03:20:59 27° 179° (S) 1,209 3.6 -18.3°
